Regional Weather Roundup
Issued by NWS Jackson, KY

Home | Current Version | Previous Version | Text Only | Print | Product List | Glossary On
Versions: 1 2 3 4 5 6 7 8 9 10 11 12 13 14 15 16 17 18 19 20 21 22 23 24 25 26 27 28 29 30 31 32 33 34 35 36 37 38 39 40 41 42 43 44 45 46 47 48 49 50
260
ASUS43 KJKL 221710
RWRJKL

EAST KENTUCKY HOURLY WEATHER ROUNDUP
NATIONAL WEATHER SERVICE JACKSON KY
1200 PM EST MON JAN 22 2018

NOTE: "FAIR" INDICATES FEW OR NO CLOUDS BELOW 12,000 FEET WITH
NO SIGNIFICANT WEATHER AND/OR OBSTRUCTIONS TO VISIBILITY.

* THESE REPORTS ARE NOT UNDER NWS QUALITY CONTROL AND MAY NOT
  REPORT WEATHER SUCH AS PRECIPITATION AND FOG.

KYZ079-080-083-085-087-088-110-112-115-119-120-221800
...EASTERN KENTUCKY...

CITY           SKY/WX    TMP DP  RH WIND       PRES   REMARKS
JACKSON          N/A     61  42  49 MISG      29.94F
LONDON           N/A     60  41  49 S15G24    29.94F
SOMERSET*      CLOUDY    59  37  44 SW9G18    29.98R
MONTICELLO*    LGT RAIN  58  44  60 S12G29    29.97R
WILLIAMSBURG*    N/A     59  41  51 S9        29.96F
MIDDLESBORO*     N/A     57  43  59 CALM      30.01F
HARLAN APT*      N/A     59  41  51 CALM      30.01F
PIKE CO APT*     N/A     62  42  48 S9        29.97F
BIG SANDY APT*   N/A     63  43  47 S15       29.96F
MOREHEAD APT*    N/A     61  43  51 S12G18    29.92F
ASHLAND*         N/A     63  45  51 SE13      29.92
$$

KYZ035-036-041-042-044-050-067-078-099-221800
...CENTRAL KENTUCKY...

CITY           SKY/WX    TMP DP  RH WIND       PRES   REMARKS
MT STERLING*   PTSUNNY   61  43  51 SW15G29   29.92F
FLEMING/MASON*   N/A     60  44  55 S14G23    29.90F
DANVILLE*      DRIZZLE   57  43  58 SW12G17   29.95R
LEXINGTON      LGT RAIN  58  45  62 SW15G25   29.94R
FRANKFORT      CLOUDY    58  44  60 SW13      29.90F
LOUISVILLE     LGT RAIN  54  50  86 SE10      29.85F FOG
LEBANON*       PTSUNNY   55  46  71 S12       29.92F
GLASGOW*       LGT RAIN  54  47  76 SE8       29.89F
BOWLING GREEN  LGT RAIN  54  49  83 S17G29    29.85F
$$

KYZ091>093-OHZ055-061-077-WVZ005-015-034-035-042-221800
...SOUTHERN OHIO/WEST VIRGINIA...

CITY           SKY/WX    TMP DP  RH WIND       PRES   REMARKS
COVINGTON      CLOUDY    57  46  66 S12       29.88F
COLUMBUS       CLOUDY    59  46  62 S16G24    29.88F
DAYTON         LGT RAIN  55  47  74 S15       29.86F
WILMINGTON     CLOUDY    55  46  71 SW13      29.89R
HUNTINGTON       N/A     64  42  44 S10G22    29.92F
CHARLESTON     PTSUNNY   66  44  45 S8        29.95F
BECKLEY          N/A     57  41  55 SE10G20   30.03F
BLUEFIELD        N/A     54  37  52 S13G22    30.08F
LOGAN CO APT*    N/A     61  41  48 S8G21     29.97F
$$

VAZ002-007-008-TNZ017-027-036-066-071-221800
...SOUTHWEST VIRGINIA/EAST TENNESSEE...

CITY           SKY/WX    TMP DP  RH WIND       PRES   REMARKS
WISE*            N/A     59  43  55 S16G28    30.03F
JONESVILLE*      N/A     59  45  58 SE6       30.04F
ABINGDON*        N/A     60  45  58 CALM      30.05F
BRISTOL        CLOUDY    58  45  62 CALM      30.04F
MORRISTOWN*    SUNNY     55  45  67 CALM      30.02F
SEVIERVILLE*   SUNNY     52  43  71 N5        30.01F
KNOXVILLE      CLOUDY    53  43  68 NW5       30.02F
LAFOLLETTE*    MOSUNNY   59  43  55 S9G15     30.03F
OAK RIDGE      PTSUNNY   58  44  60 W3        30.03F
CROSSVILLE     CLOUDY    54  41  61 VRB7G21   29.99F
NASHVILLE      LGT RAIN  54  50  86 SE17G23   29.87F FOG
$$

...KEY TO REMARKS...
VSB - VISIBILITY IN MILES
WCI - WIND CHILL INDEX
HX  - HEAT INDEX

$$




USA.gov is the U.S. government's official web portal to all federal, state and local government web resources and services.